Regional Weather Roundup
Issued by NWS

Home | Current Version | Previous Version | Text Only | Print | Product List | Glossary Off
Versions: 1 2 3 4 5 6 7 8 9 10 11 12 13 14 15 16 17 18 19 20 21 22 23 24 25 26 27 28 29 30 31 32 33 34 35 36 37 38 39 40 41 42 43 44 45 46 47 48 49 50

000
ASUS43 KLMK 210110
RWRKY
KENTUCKY REGIONAL WEATHER ROUNDUP
NATIONAL WEATHER SERVICE LOUISVILLE KY
900 PM EDT MON OCT 20 2014

NOTE "FAIR" INDICATES FEW OR NO CLOUDS BELOW 12,000 FEET
WITH NO SIGNIFICANT WEATHER AND/OR OBSTRUCTIONS TO VISIBILITY.

KYZ001>023-026-027-061>063-070>075-210200-
WESTERN AND SOUTH CENTRAL KENTUCKY

CITY           SKY/WX    TMP DP  RH WIND       PRES   REMARKS
PADUCAH        CLEAR     59  53  80 CALM      29.97R
HENDERSON      PTCLDY    63  52  67 W6        29.95R
OWENSBORO      MOCLDY    64  55  72 W8        29.95R
HOPKINSVILLE   CLEAR     59  53  80 SW5       29.98R
BOWLING GREEN  CLEAR     59  50  72 S6        29.98R
GLASGOW        CLEAR     57  48  73 CALM      29.98S
$$

KYZ024-025-028>034-038-045-046-053-210200-
NORTH CENTRAL KENTUCKY

CITY           SKY/WX    TMP DP  RH WIND       PRES   REMARKS
LOUISVILLE/SDF TSTM      62  54  74 SW12      29.91S
LOUISVILLE/LOU TSTM      59  55  87 CALM      29.92R FOG
FORT KNOX      MOCLDY    59  51  75 S6        29.92R
$$

KYZ035>037-039>044-047>052-055>060-089>105-210200-
NORTHEAST KENTUCKY

CITY           SKY/WX    TMP DP  RH WIND       PRES   REMARKS
LEXINGTON      PTCLDY    59  48  67 SW10      29.94S
COVINGTON      PTCLDY    58  50  75 SW7       29.89S
FRANKFORT      PTCLDY    58  49  72 SW7       29.92S
$$

KYZ054-064>069-076>088-106>120-210200-
SOUTHEAST KENTUCKY

CITY           SKY/WX    TMP DP  RH WIND       PRES   REMARKS
JACKSON        CLEAR     52  49  89 CALM      29.96R
LONDON         PTCLDY    58  47  66 SW5       29.99R
SOMERSET       PTCLDY    52  46  82 CALM      30.00R
MIDDLESBORO    CLOUDY    52  50  93 CALM      30.00R
MONTICELLO     CLEAR     47  45  93 CALM      30.01R
$$




USA.gov is the U.S. government's official web portal to all federal, state and local government web resources and services.